This is the latest recevied weather packets stored in our database for station/object K3HM. If no packets are shown the sender has not sent any weather packets the latest 10 day(s).
| Time | Temp. | Humidity | Pressure | Rain* | Wind** | Luminosity | Snow |
|---|---|---|---|---|---|---|---|
| 1777847644 | 10.56° C | 45% | 1014.9 hPa | 0 mm | - | 101 W/m² | - |
| 1777847339 | 10.56° C | 46% | 1015.1 hPa | 0 mm | - | 157 W/m² | - |
| 1777847038 | 10.56° C | 45% | 1015 hPa | 0 mm | - | 64 W/m² | - |
| 1777846736 | 10.56° C | 45% | 1015 hPa | 0 mm | - | 147 W/m² | - |
| 1777846434 | 11.11° C | 43% | 1015.1 hPa | 0 mm | - | 180 W/m² | - |
| 1777846130 | 11.67° C | 43% | 1014.9 hPa | 0 mm | - | 181 W/m² | - |
| 1777845827 | 11.67° C | 45% | 1014.9 hPa | 0 mm | - | 240 W/m² | - |
| 1777845524 | 10.56° C | 44% | 1015 hPa | 0 mm | - | 254 W/m² | - |
| 1777845221 | 10.56° C | 44% | 1015 hPa | 0 mm | - | 72 W/m² | - |
| 1777844919 | 11.67° C | 43% | 1015.1 hPa | 0 mm | - | 81 W/m² | - |
| 1777844616 | 11.67° C | 41% | 1015.1 hPa | 0 mm | - | 278 W/m² | - |
| 1777844313 | 11.67° C | 43% | 1015.1 hPa | 0 mm | - | 125 W/m² | - |
| 1777844011 | 11.11° C | 43% | 1015 hPa | 0 mm | - | 371 W/m² | - |
| 1777843707 | 11.11° C | 43% | 1015.1 hPa | 0 mm | - | 109 W/m² | - |
| 1777843405 | 11.67° C | 42% | 1015 hPa | 0 mm | - | 301 W/m² | - |
| 1777843102 | 11.67° C | 44% | 1015 hPa | 0 mm | - | 389 W/m² | - |
| 1777842799 | 10.56° C | 46% | 1015.3 hPa | 0 mm | - | 425 W/m² | - |
| 1777842499 | 11.11° C | 45% | 1015.1 hPa | 0 mm | - | 97 W/m² | - |
| 1777842197 | 11.11° C | 44% | 1014.9 hPa | 0 mm | - | 146 W/m² | - |
| 1777841891 | 11.11° C | 43% | 1015 hPa | 0 mm | - | 150 W/m² | - |
| 1777841588 | 10.56° C | 44% | 1015.1 hPa | 0 mm | - | 219 W/m² | - |
| 1777841285 | 10.56° C | 43% | 1015.3 hPa | 0 mm | - | 189 W/m² | - |
| 1777840983 | 11.67° C | 42% | 1015.3 hPa | 0 mm | - | 108 W/m² | - |
| 1777840680 | 11.67° C | 41% | 1015.3 hPa | 0 mm | - | 519 W/m² | - |
| 1777840377 | 11.11° C | 42% | 1015.3 hPa | 0 mm | - | 403 W/m² | - |
* Rain latest hour (hover to see other rain measurements)
** Current wind speed in m/s (hover to see current wind gust speed)